Location: Góry Miechowskie
(50.3599°N, 20.1803°E)
Time: 15:03:35
(UTC+00:00)

A-11 Canister half - Pass Details

Date: 22 September 2024
Orbit: 1515 x 1684 km, 47.2° (Epoch: 07 October)

Event Time Altitude Azimuth Distance (km) Brightness Sun altitude
Rises 13:44:50 0° 193° (SSW) 4,798 12.3 25.1°
Reaches altitude 10° 13:48:47 10° 180° (S) 3,787 11.6 24.6°
Maximum altitude 13:55:43 23° 133° (SE) 2,844 10.4 23.7°
Drops below altitude 10° 14:02:31 10° 86° (E) 3,711 10.6 22.7°
Sets 14:06:18 0° 73° (ENE) 4,680 11.0 22.2°
